[[[{"header":{"parameterUnit":"kt","parameterCategory":2,"dx":1,"dy":1,"la1":30.253999710083008,"la2":30.299108505249023,"lo1":-89.0895004272461,"lo2":-89.04439544677734,"nx":28,"ny":28,"refTime":"2022-09-17T21:00:00:Z","depth":0,"parameterNumber":1,"parameterNumberName":"U-component_of_WINDS"},"data":[-5.6767,-5.6908,-5.6811,-5.6931,-5.6864,-5.693,-5.6923,-5.6905,-5.6866,-5.6937,-5.6961,-5.6882,-5.6808,-5.6817,-5.6841,-5.6806,-5.6825,-5.6944,-5.6883,-5.6426,-5.6357,-5.6291,-5.6249,-5.6949,-5.695,-5.7369,-5.7374,-5.7377,-5.6441,-5.6376,-5.641,-5.6377,-5.6406,-5.6231,-5.6193,-5.623,-5.6296,-5.625,-5.6267,-5.6323,-5.6356,-5.6239,-5.6256,-5.6324,-5.6245,-5.6336,-5.6331,-5.6323,-5.583,-5.5787,-5.64,-5.64,-5.64,-5.64,-5.6399,-5.6399,-5.5824,-5.5913,-5.5834,-5.587,-5.5827,-5.5807,-5.5877,-5.5773,-5.5808,-5.5809,-5.5688,-5.5762,-5.57,-5.5672,-5.5641,-5.5697,-5.558,-5.5651,-5.5669,-5.569,-5.5727,-5.5138,-5.5695,-5.5693,-5.5691,-5.569,-5.5688,0,-5.5341,-5.5253,-5.5278,-5.5275,-5.5295,-5.5285,-5.5259,-5.5299,-5.5081,-5.5121,-5.5168,-5.518,-5.5205,-5.5242,-5.5236,-5.5186,-5.5013,-5.4984,-5.5033,-5.5094,-5.515,-5.5124,-5.4329,-5.497,-5.4963,-5.4958,-5.4955,-5.4952,-5.4713,-5.4828,-5.4698,-5.4729,-5.4689,-5.4744,-5.4756,-5.4554,-5.4578,-5.4518,-5.4609,-5.4641,-5.4656,-5.4753,-5.4635,-5.4656,-5.4572,-5.4828,-5.4575,-5.4628,-5.4579,-5.4575,-5.4587,-5.4883,-5.4891,-5.4899,-5.4905,0,-5.4369,-5.4205,-5.4352,-5.4211,-5.418,-5.4312,-5.4193,-5.4276,-5.4165,-5.4265,-5.4276,-5.4107,-5.4159,-5.3997,-5.4025,-5.394,-5.4163,-5.4079,-5.4183,-5.4158,-5.4373,-5.4356,-5.509,-5.5176,-5.4446,-5.4453,-5.4459,0,-5.377,-5.3929,-5.3676,-5.377,-5.394,-5.373,-5.3906,-5.3828,-5.3766,-5.3842,-5.3615,-5.3692,-5.3471,-5.3526,-5.34,-5.3553,-5.3557,-5.3502,-5.3468,-5.3524,-5.3532,-5.3538,-5.3506,-5.3381,-5.3377,-5.3374,-5.3371,0,-5.325,-5.33,-5.345,-5.3435,-5.3302,-5.3379,-5.3329,-5.3256,-5.3272,-5.3266,-5.3274,-5.3285,-5.3292,-5.3304,-5.3142,-5.2977,-5.3324,-5.3063,-5.3268,-5.3273,-5.3356,-5.3354,-5.4041,-5.3367,-5.3366,-5.3364,-5.3363,0,-5.2741,-5.2733,-5.2976,-5.2858,-5.288,-5.2981,-5.2972,-5.3019,-5.2962,-5.2886,-5.288,-5.271,-5.2827,-5.258,-5.274,-5.257,-5.2591,-5.2547,-5.2559,-5.2562,-5.2291,-5.2705,-5.3372,-5.3437,-5.2563,-5.2556,-5.255,0,-5.2192,-5.2391,-5.2209,-5.2446,-5.2515,-5.225,-5.2358,-5.2312,-5.222,-5.2267,-5.2165,-5.2224,-5.2004,-5.2,-5.21,-5.2,-5.2221,-5.1965,-5.2045,-5.205,-5.207,-5.2681,-5.2822,-5.3243,-5.2462,-5.2471,-5.2478,0,-5.1746,-5.1577,-5.1632,-5.1605,-5.1507,-5.1564,-5.1689,-5.1696,-5.1738,-5.1711,-5.1812,-5.1888,-5.1726,-5.1722,-5.1584,-5.1698,-5.2065,-5.1509,-5.1505,-5.1618,-5.2403,-5.2536,-5.2608,-5.1948,-5.1959,-5.1967,-5.2408,0,-5.1018,-5.1094,-5.1233,-5.1184,-5.1201,-5.1339,-5.1159,-5.1201,-5.1063,-5.0962,-5.1107,-5.1028,-5.1042,-5.1077,-5.0946,-5.1256,-5.1179,-5.1007,-5.0757,-5.1159,-5.13,-5.1357,-5.0561,-5.0552,-5.0545,-5.0539,0,0,-5.0535,-5.064,-5.0436,-5.0545,-5.0547,-5.0269,-5.0433,-5.0404,-5.0353,-5.0362,-5.0219,-5.0318,-5.0262,-5.0458,-5.0569,-5.0574,-5.0615,-5.0481,-5.0968,-5.1017,-5.1061,-5.1216,-5.1278,-5.0527,-5.0524,-5.0522,-5.0519,0,-5.023,-5.0169,-5.033,-5.0288,-5.0219,-5.01,-5.014,-5.0024,-4.9967,-5.0105,-4.9879,-4.9945,-5.003,-5.0,-4.9996,-5.0451,-5.028,-5.0469,-5.0773,-5.0903,-5.0961,-5.1012,-5.1176,-5.1237,-5.0502,-5.0503,-5.0504,0,-4.976,-4.967,-4.9728,-4.9715,-4.9668,-4.9747,-4.9437,-4.9534,-4.9591,-4.9287,-4.943,-4.9364,-4.9309,-4.9516,-4.9603,-4.9477,-4.9985,-4.9793,-4.9833,-4.984,-4.9957,-5.0027,-5.0089,-4.927,-4.9266,-4.9263,0,0,-4.9523,-4.9591,-4.9433,-4.9636,-4.9622,-4.9449,-4.9472,-4.9337,-4.9289,-4.9272,-4.9181,-4.9146,-4.9192,-4.9228,-4.9262,-4.9516,-4.949,-4.9648,-4.9706,-4.9754,-4.9788,-4.9918,-4.9987,-4.9249,-4.9249,-4.9248,0,0,-4.941,-4.9232,-4.9099,-4.9312,-4.9272,-4.9133,-4.9266,-4.9102,-4.9113,-4.9078,-4.8858,-4.8839,-4.903,-4.8975,-4.8813,-4.9171,-4.8927,-4.8962,-4.9201,-4.9272,-4.9329,-4.934,-4.849,0,0,0,0,0,-4.9005,-4.9252,-4.9134,-4.9142,-4.9127,-4.9197,-4.9194,-4.9015,-4.8845,-4.8955,-4.8853,-4.8665,-4.8842,-4.8694,-4.8708,-4.8891,-4.9075,-4.9106,-4.9135,-4.9501,-4.9577,-4.9642,0,0,0,0,0,0,-4.9007,-4.9017,-4.9127,-4.9001,-4.8995,-4.9187,-4.8859,-4.8817,-4.8829,-4.879,-4.8691,-4.8662,-4.8514,-4.8675,-4.869,-4.8868,-4.8484,-4.9087,-4.9113,-4.9137,-4.9527,-4.959,-4.9643,0,0,0,0,0,-4.9007,-4.9015,-4.9037,-4.8996,-4.8991,-4.8812,-4.8848,-4.881,-4.8817,-4.866,-4.8625,-4.868,-4.8524,-4.8525,-4.8683,-4.8865,-4.8472,-4.8479,-4.9104,-4.9125,-4.9143,-4.9558,0,0,0,0,0,0,-4.9007,-4.8983,-4.9032,-4.9024,-4.8887,-4.8797,-4.8776,-4.8806,-4.8681,-4.865,-4.8638,-4.8609,-4.8534,-4.8532,-4.8535,-4.8874,-4.8462,-4.8469,-4.8473,-4.912,-4.9136,-4.915,0,0,0,0,0,0,-4.8977,-4.8979,-4.9028,-4.8901,-4.8877,-4.8785,-4.8767,-4.8876,-4.8684,-4.8665,-4.8637,-4.8627,-4.8532,-4.854,-4.854,-4.8718,-4.8455,-4.8461,-4.8466,-4.8468,-4.9133,-4.9146,0,0,0,0,0,0,-4.8974,-4.8975,-4.8902,-4.8884,-4.8862,-4.876,-4.8878,-4.8875,-4.8571,-4.8676,-4.8539,-4.8525,-4.8546,-4.8542,-4.8546,-4.8725,-4.872,-4.8455,-4.8459,-4.8462,-4.8464,0,0,0,0,0,0,0,-4.8972,-4.9007,-4.9079,-4.887,-4.8849,-4.8951,-4.8949,-4.8947,-4.8568,-4.8555,-4.8543,-4.8531,-4.8419,-4.8426,-4.8433,-4.873,0,0,-4.8454,-4.8458,0,0,0,0,0,0,0,0,-4.9003,-4.9006,-4.9078,-4.9077,-4.9075,-4.895,-4.8949,-4.8947,-4.8566,-4.8556,-4.8545,-4.8536,-4.8421,-4.8426,-4.8432,0,0,0,0,0,0,0,0,0,0,0,0,0,0,0,-4.9078,-4.9077,0,-4.895,-4.8949,-4.8947,-4.8565,-4.8556,-4.8548,-4.854,-4.8422,-4.8427,-4.8431,0,0,0,0,0,0,0,0,0,0,0,0,0,0,0,0,0,0,0,0,0,0,0,0,0,0,0,0,0,0,0,0,0,0,0,0,0,0,0,0,0,0,0,0,0,0,0,0,0,0,0,0,0,0,0,0,0,0,0,0,0,0,0,0,0,0,0,0,0]}],[{"header":{"parameterUnit":"kt","parameterCategory":2,"dx":1,"dy":1,"la1":30.253999710083008,"la2":30.299108505249023,"lo1":-89.0895004272461,"lo2":-89.04439544677734,"nx":28,"ny":28,"refTime":"2022-09-17T21:00:00:Z","depth":0,"parameterNumber":2,"parameterNumberName":"V-component_of_WINDS"},"data":[-3.2869,-3.2909,-3.2953,-3.3017,-3.3067,-3.3118,-3.3149,-3.3195,-3.3241,-3.3305,-3.3349,-3.3395,-3.3457,-3.3517,-3.3565,-3.3584,-3.36,-3.3582,-3.3607,-3.3651,-3.366,-3.3668,-3.3662,-3.3586,-3.3586,-3.3554,-3.3554,-3.3553,-3.2894,-3.2944,-3.2992,-3.3068,-3.3109,-3.3152,-3.3215,-3.3245,-3.3289,-3.3347,-3.3393,-3.3452,-3.3503,-3.3573,-3.3629,-3.3645,-3.3667,-3.3657,-3.3655,-3.3663,-3.3713,-3.3706,-3.3638,-3.3638,-3.3638,-3.3638,-3.3638,-3.3638,-3.2951,-3.2974,-3.3046,-3.3099,-3.3149,-3.3199,-3.3227,-3.3285,-3.3331,-3.3398,-3.344,-3.349,-3.3555,-3.3644,-3.3684,-3.3722,-3.3741,-3.3742,-3.3742,-3.374,-3.3732,-3.3767,-3.3734,-3.3734,-3.3734,-3.3735,-3.3735,0,-3.3006,-3.3041,-3.3091,-3.3154,-3.3195,-3.3247,-3.3302,-3.3321,-3.341,-3.3444,-3.3496,-3.3534,-3.3606,-3.3659,-3.3721,-3.3763,-3.3809,-3.382,-3.382,-3.3798,-3.377,-3.3782,-3.3859,-3.382,-3.382,-3.3821,-3.3822,-3.3822,-3.3064,-3.3087,-3.3185,-3.3213,-3.3255,-3.33,-3.3336,-3.3414,-3.3447,-3.3525,-3.354,-3.3596,-3.3644,-3.3719,-3.3784,-3.3838,-3.386,-3.384,-3.3868,-3.3847,-3.3856,-3.3853,-3.3854,-3.3832,-3.383,-3.3829,-3.3829,0,-3.3091,-3.3166,-3.3215,-3.331,-3.3335,-3.3353,-3.3433,-3.3459,-3.3513,-3.3555,-3.3569,-3.3653,-3.3702,-3.3772,-3.3843,-3.3877,-3.3903,-3.3925,-3.388,-3.3887,-3.3874,-3.3873,-3.3826,-3.3822,-3.3905,-3.3905,-3.3904,0,-3.3169,-3.3196,-3.3304,-3.3329,-3.336,-3.3439,-3.3467,-3.3517,-3.3577,-3.3611,-3.3677,-3.3707,-3.3793,-3.3832,-3.3883,-3.3917,-3.3931,-3.3958,-3.3971,-3.3951,-3.3947,-3.3967,-3.397,-3.4003,-3.4003,-3.4003,-3.4004,0,-3.3203,-3.3294,-3.3335,-3.3368,-3.3472,-3.3489,-3.3532,-3.3601,-3.3635,-3.3691,-3.3713,-3.3771,-3.3802,-3.3845,-3.391,-3.3927,-3.3955,-3.3991,-3.3983,-3.3981,-3.3983,-3.3982,-3.3925,-3.4004,-3.4004,-3.4004,-3.4004,0,-3.3276,-3.3334,-3.3384,-3.3472,-3.3493,-3.352,-3.3584,-3.3624,-3.3692,-3.3727,-3.3771,-3.3823,-3.3862,-3.3891,-3.3944,-3.3947,-3.3972,-3.4003,-3.4004,-3.401,-3.4041,-3.3996,-3.3937,-3.3931,-3.4017,-3.4017,-3.4017,0,-3.3293,-3.3364,-3.3434,-3.3479,-3.3522,-3.3595,-3.3626,-3.3685,-3.3735,-3.3776,-3.3831,-3.3877,-3.3915,-3.3939,-3.3956,-3.4013,-3.401,-3.4016,-3.4069,-3.407,-3.4047,-3.3994,-3.3967,-3.3942,-3.4019,-3.4019,-3.4019,0,-3.3315,-3.3446,-3.3449,-3.3489,-3.3582,-3.3619,-3.3655,-3.3721,-3.3744,-3.3804,-3.3834,-3.3903,-3.3933,-3.3973,-3.4022,-3.4036,-3.4014,-3.4066,-3.4069,-3.4052,-3.4028,-3.4001,-3.3997,-3.4043,-3.4043,-3.4043,-3.4021,0,-3.3404,-3.3451,-3.3465,-3.3553,-3.3594,-3.3627,-3.3706,-3.3737,-3.3782,-3.3834,-3.3881,-3.3949,-3.4013,-3.4028,-3.4071,-3.4082,-3.4091,-3.4123,-3.4156,-3.4121,-3.4116,-3.4114,-3.4158,-3.4159,-3.416,-3.4161,0,0,-3.34,-3.347,-3.3547,-3.3587,-3.3625,-3.3702,-3.373,-3.3776,-3.3867,-3.389,-3.391,-3.4015,-3.4069,-3.4117,-3.4113,-3.414,-3.4147,-3.4157,-3.4138,-3.4135,-3.4132,-3.4125,-3.4122,-3.4164,-3.4164,-3.4164,-3.4165,0,-3.3449,-3.3508,-3.3538,-3.359,-3.367,-3.3725,-3.3732,-3.3824,-3.3859,-3.3908,-3.3968,-3.4006,-3.4089,-3.4137,-3.4172,-3.4154,-3.4195,-3.4168,-3.4132,-3.4147,-3.4143,-3.4139,-3.413,-3.4126,-3.4168,-3.4168,-3.4167,0,-3.3484,-3.3554,-3.3578,-3.3672,-3.3725,-3.3768,-3.3823,-3.3866,-3.3898,-3.3977,-3.4024,-3.4072,-3.4143,-3.418,-3.42,-3.4218,-3.4234,-3.4244,-3.4239,-3.4242,-3.426,-3.4255,-3.425,-3.4314,-3.4315,-3.4315,0,0,-3.3515,-3.3561,-3.366,-3.3689,-3.3718,-3.3802,-3.3833,-3.3881,-3.3946,-3.3971,-3.4034,-3.4093,-3.4142,-3.4172,-3.4222,-3.4253,-3.4272,-3.4259,-3.4252,-3.4246,-3.4246,-3.4263,-3.4257,-3.4316,-3.4316,-3.4316,0,0,-3.353,-3.3647,-3.3681,-3.3725,-3.3786,-3.3884,-3.3897,-3.3941,-3.3995,-3.3999,-3.408,-3.41,-3.4136,-3.418,-3.4181,-3.4235,-3.4266,-3.4268,-3.4205,-3.4197,-3.419,-3.4178,-3.4245,0,0,0,0,0,-3.3622,-3.3633,-3.3663,-3.3682,-3.3802,-3.3867,-3.3883,-3.3952,-3.3973,-3.3981,-3.404,-3.4084,-3.4197,-3.42,-3.4217,-3.4214,-3.4325,-3.4323,-3.4322,-3.4248,-3.424,-3.4232,0,0,0,0,0,0,-3.363,-3.3654,-3.3663,-3.376,-3.3788,-3.3868,-3.3918,-3.3937,-3.3973,-3.3981,-3.4071,-3.4087,-3.4145,-3.4196,-3.421,-3.4206,-3.4241,-3.4325,-3.4323,-3.4322,-3.4245,-3.4238,-3.4232,0,0,0,0,0,-3.3637,-3.3656,-3.383,-3.3761,-3.3785,-3.3879,-3.3918,-3.3934,-3.3964,-3.4056,-3.4073,-3.4012,-3.4143,-3.4159,-3.4205,-3.4198,-3.4232,-3.4237,-3.4324,-3.4322,-3.4321,-3.4242,0,0,0,0,0,0,-3.3642,-3.3671,-3.3837,-3.3847,-3.3763,-3.3876,-3.3896,-3.3932,-3.4037,-3.4054,-3.4,-3.4005,-3.4142,-3.4155,-3.4167,-3.4192,-3.4224,-3.4229,-3.4232,-3.4323,-3.4322,-3.4321,0,0,0,0,0,0,-3.3661,-3.3678,-3.3842,-3.384,-3.3851,-3.3872,-3.3891,-3.3939,-3.4037,-3.3976,-3.3984,-3.4001,-3.4123,-3.4152,-3.4161,-3.4234,-3.4219,-3.4223,-3.4227,-3.4229,-3.4322,-3.4321,0,0,0,0,0,0,-3.3669,-3.3684,-3.3838,-3.3846,-3.3855,-3.3969,-3.3916,-3.4034,-3.4038,-3.397,-3.404,-3.4041,-3.4118,-3.4129,-3.4157,-3.4226,-3.4232,-3.4219,-3.4222,-3.4224,-3.4226,0,0,0,0,0,0,0,-3.3676,-3.356,-3.3779,-3.3851,-3.3859,-3.3937,-3.3939,-3.3942,-3.4038,-3.4039,-3.404,-3.4041,-3.4191,-3.4197,-3.4202,-3.4218,0,0,-3.4218,-3.4221,0,0,0,0,0,0,0,0,-3.3555,-3.3559,-3.378,-3.3782,-3.3784,-3.3937,-3.3939,-3.3941,-3.4039,-3.4039,-3.404,-3.4041,-3.4193,-3.4197,-3.4201,0,0,0,0,0,0,0,0,0,0,0,0,0,0,0,-3.378,-3.3781,0,-3.3937,-3.3939,-3.3941,-3.4039,-3.4039,-3.404,-3.404,-3.4194,-3.4197,-3.4201,0,0,0,0,0,0,0,0,0,0,0,0,0,0,0,0,0,0,0,0,0,0,0,0,0,0,0,0,0,0,0,0,0,0,0,0,0,0,0,0,0,0,0,0,0,0,0,0,0,0,0,0,0,0,0,0,0,0,0,0,0,0,0,0,0,0,0,0,0]}]]]